Time,TemperatureF,DewpointF,PressureIn,WindDirection,WindDirectionDegrees,WindSpeedMPH,WindSpeedGustMPH,Humidity,HourlyPrecipIn,Conditions,Clouds,dailyrainin,SoftwareType,DateUTC
2013-03-02 00:00:00,29.7,18.6,30.64,SE,136,0.0,0.0,63,0.00,,,0.00,Wunderground v.1.15,2013-03-02 07:00:00,
2013-03-02 00:02:00,29.5,18.4,30.66,SE,136,0.0,0.0,63,0.00,,,0.00,Wunderground v.1.15,2013-03-02 07:02:00,
2013-03-02 00:08:00,29.4,18.7,30.66,SE,136,0.0,0.0,64,0.00,,,0.00,Wunderground v.1.15,2013-03-02 07:08:00,
2013-03-02 00:10:00,29.3,18.6,30.66,SE,136,0.0,0.0,64,0.00,,,0.00,Wunderground v.1.15,2013-03-02 07:10:00,
2013-03-02 00:12:00,29.0,18.3,30.66,SE,136,0.0,0.0,64,0.00,,,0.00,Wunderground v.1.15,2013-03-02 07:12:00,
2013-03-02 00:16:00,28.4,18.1,30.65,SE,136,0.0,0.0,65,0.00,,,0.00,Wunderground v.1.15,2013-03-02 07:16:00,
2013-03-02 00:18:00,28.2,17.9,30.65,SE,136,0.0,0.0,65,0.00,,,0.00,Wunderground v.1.15,2013-03-02 07:18:00,
2013-03-02 00:22:00,27.6,17.7,30.65,SE,136,0.0,0.0,66,0.00,,,0.00,Wunderground v.1.15,2013-03-02 07:22:00,
2013-03-02 00:24:00,27.3,17.8,30.65,SE,136,0.0,0.0,67,0.00,,,0.00,Wunderground v.1.15,2013-03-02 07:24:00,
2013-03-02 00:26:00,27.2,17.7,30.65,SE,136,0.0,0.0,67,0.00,,,0.00,Wunderground v.1.15,2013-03-02 07:26:00,
2013-03-02 00:28:00,27.0,17.8,30.65,SE,136,0.0,0.0,68,0.00,,,0.00,Wunderground v.1.15,2013-03-02 07:28:00,
2013-03-02 00:32:00,26.6,17.8,30.66,SE,136,0.0,0.0,69,0.00,,,0.00,Wunderground v.1.15,2013-03-02 07:32:00,
2013-03-02 00:34:00,26.6,17.8,30.66,SE,136,0.0,0.0,69,0.00,,,0.00,Wunderground v.1.15,2013-03-02 07:34:00,
2013-03-02 00:36:00,26.4,17.6,30.66,SE,136,0.0,0.0,69,0.00,,,0.00,Wunderground v.1.15,2013-03-02 07:36:00,
2013-03-02 00:38:00,26.3,17.5,30.66,SE,136,0.0,0.0,69,0.00,,,0.00,Wunderground v.1.15,2013-03-02 07:38:00,
2013-03-02 00:42:00,26.1,17.6,30.66,SE,136,0.0,0.0,70,0.00,,,0.00,Wunderground v.1.15,2013-03-02 07:42:00,
2013-03-02 00:44:00,26.1,17.6,30.66,SE,136,0.0,0.0,70,0.00,,,0.00,Wunderground v.1.15,2013-03-02 07:44:00,
2013-03-02 00:46:00,26.1,17.6,30.67,SE,136,0.0,0.0,70,0.00,,,0.00,Wunderground v.1.15,2013-03-02 07:46:00,
2013-03-02 00:48:00,26.1,17.6,30.67,SE,136,0.0,0.0,70,0.00,,,0.00,Wunderground v.1.15,2013-03-02 07:48:00,
2013-03-02 00:50:00,26.3,17.8,30.67,SE,136,0.0,0.0,70,0.00,,,0.00,Wunderground v.1.15,2013-03-02 07:50:00,
2013-03-02 00:52:00,26.6,18.1,30.67,SE,136,0.0,0.0,70,0.00,,,0.00,Wunderground v.1.15,2013-03-02 07:52:00,
2013-03-02 00:54:00,26.9,18.1,30.67,SE,136,0.0,0.0,69,0.00,,,0.00,Wunderground v.1.15,2013-03-02 07:54:00,
2013-03-02 00:56:00,27.2,18.4,30.67,SE,136,1.0,1.0,69,0.00,,,0.00,Wunderground v.1.15,2013-03-02 07:56:00,
2013-03-02 00:58:00,27.6,18.1,30.67,SE,136,1.0,1.0,67,0.00,,,0.00,Wunderground v.1.15,2013-03-02 07:58:00,
2013-03-02 01:00:00,27.9,18.0,30.67,SE,136,1.0,1.0,66,0.00,,,0.00,Wunderground v.1.15,2013-03-02 08:00:00,
2013-03-02 01:02:00,28.1,18.2,30.65,SE,136,1.0,1.0,66,0.00,,,0.00,Wunderground v.1.15,2013-03-02 08:02:00,
2013-03-02 01:04:00,28.2,17.9,30.65,SE,136,0.0,1.0,65,0.00,,,0.00,Wunderground v.1.15,2013-03-02 08:04:00,
2013-03-02 01:06:00,28.4,18.1,30.65,SE,136,0.0,1.0,65,0.00,,,0.00,Wunderground v.1.15,2013-03-02 08:06:00,
2013-03-02 01:08:00,28.4,18.1,30.65,SE,136,1.0,3.0,65,0.00,,,0.00,Wunderground v.1.15,2013-03-02 08:08:00,
2013-03-02 01:12:00,28.5,17.9,30.65,SE,136,1.0,2.0,64,0.00,,,0.00,Wunderground v.1.15,2013-03-02 08:12:00,
2013-03-02 01:14:00,28.7,18.1,30.65,SE,136,1.0,2.0,64,0.00,,,0.00,Wunderground v.1.15,2013-03-02 08:14:00,
2013-03-02 01:18:00,29.0,18.0,30.64,SE,136,1.0,2.0,63,0.00,,,0.00,Wunderground v.1.15,2013-03-02 08:18:00,
2013-03-02 01:20:00,29.0,18.0,30.64,SE,136,1.0,1.0,63,0.00,,,0.00,Wunderground v.1.15,2013-03-02 08:20:00,
2013-03-02 01:24:00,29.1,17.7,30.64,SE,136,0.0,1.0,62,0.00,,,0.00,Wunderground v.1.15,2013-03-02 08:24:00,
2013-03-02 01:26:00,29.1,17.7,30.64,SE,136,0.0,1.0,62,0.00,,,0.00,Wunderground v.1.15,2013-03-02 08:26:00,
2013-03-02 01:28:00,29.1,17.7,30.64,SE,136,0.0,2.0,62,0.00,,,0.00,Wunderground v.1.15,2013-03-02 08:28:00,
2013-03-02 01:30:00,29.0,17.6,30.64,SE,136,1.0,1.0,62,0.00,,,0.00,Wunderground v.1.15,2013-03-02 08:30:00,
2013-03-02 01:32:00,29.0,17.6,30.64,SE,135,1.0,1.0,62,0.00,,,0.00,Wunderground v.1.15,2013-03-02 08:32:00,
2013-03-02 01:36:00,28.7,17.3,30.64,SE,136,1.0,1.0,62,0.00,,,0.00,Wunderground v.1.15,2013-03-02 08:36:00,
2013-03-02 01:38:00,28.7,17.3,30.64,SE,136,1.0,1.0,62,0.00,,,0.00,Wunderground v.1.15,2013-03-02 08:38:00,
2013-03-02 01:40:00,28.7,17.3,30.64,SE,136,1.0,1.0,62,0.00,,,0.00,Wunderground v.1.15,2013-03-02 08:40:00,
2013-03-02 01:46:00,28.4,17.4,30.65,SE,136,0.0,2.0,63,0.00,,,0.00,Wunderground v.1.15,2013-03-02 08:46:00,
2013-03-02 01:48:00,28.4,17.4,30.65,SE,136,1.0,2.0,63,0.00,,,0.00,Wunderground v.1.15,2013-03-02 08:48:00,
2013-03-02 01:52:00,28.4,17.4,30.65,SE,136,1.0,1.0,63,0.00,,,0.00,Wunderground v.1.15,2013-03-02 08:52:00,
2013-03-02 01:54:00,28.4,17.4,30.65,SE,136,1.0,3.0,63,0.00,,,0.00,Wunderground v.1.15,2013-03-02 08:54:00,
2013-03-02 01:56:00,28.2,17.2,30.65,SSE,150,1.0,4.0,63,0.00,,,0.00,Wunderground v.1.15,2013-03-02 08:56:00,
2013-03-02 02:00:00,27.9,17.3,30.65,SSE,149,1.0,1.0,64,0.00,,,0.00,Wunderground v.1.15,2013-03-02 09:00:00,
2013-03-02 02:06:00,27.3,17.1,30.65,SSE,150,1.0,1.0,65,0.00,,,0.00,Wunderground v.1.15,2013-03-02 09:06:00,
2013-03-02 02:08:00,27.2,17.0,30.65,SSE,149,0.0,1.0,65,0.00,,,0.00,Wunderground v.1.15,2013-03-02 09:08:00,
2013-03-02 02:10:00,26.9,16.7,30.65,SSE,149,0.0,0.0,65,0.00,,,0.00,Wunderground v.1.15,2013-03-02 09:10:00,
2013-03-02 02:12:00,26.6,16.8,30.65,SSE,149,0.0,0.0,66,0.00,,,0.00,Wunderground v.1.15,2013-03-02 09:12:00,
2013-03-02 02:14:00,26.3,16.5,30.65,SSE,150,0.0,0.0,66,0.00,,,0.00,Wunderground v.1.15,2013-03-02 09:14:00,
2013-03-02 02:16:00,26.1,16.6,30.65,SSE,149,0.0,1.0,67,0.00,,,0.00,Wunderground v.1.15,2013-03-02 09:16:00,
2013-03-02 02:18:00,26.0,16.5,30.65,SSE,150,0.0,1.0,67,0.00,,,0.00,Wunderground v.1.15,2013-03-02 09:18:00,
2013-03-02 02:20:00,26.0,16.5,30.65,SSE,149,0.0,0.0,67,0.00,,,0.00,Wunderground v.1.15,2013-03-02 09:20:00,
2013-03-02 02:22:00,25.8,16.7,30.65,SSE,149,0.0,0.0,68,0.00,,,0.00,Wunderground v.1.15,2013-03-02 09:22:00,
2013-03-02 02:24:00,25.8,16.7,30.65,SSE,149,0.0,0.0,68,0.00,,,0.00,Wunderground v.1.15,2013-03-02 09:24:00,
2013-03-02 02:26:00,25.8,16.7,30.65,SSE,149,0.0,0.0,68,0.00,,,0.00,Wunderground v.1.15,2013-03-02 09:26:00,
2013-03-02 02:28:00,25.7,16.6,30.65,SSE,150,0.0,0.0,68,0.00,,,0.00,Wunderground v.1.15,2013-03-02 09:28:00,
2013-03-02 02:32:00,25.6,16.5,30.65,SSE,149,0.0,0.0,68,0.00,,,0.00,Wunderground v.1.15,2013-03-02 09:32:00,
2013-03-02 02:34:00,25.6,16.8,30.65,SSE,149,0.0,0.0,69,0.00,,,0.00,Wunderground v.1.15,2013-03-02 09:34:00,
2013-03-02 02:36:00,25.4,16.6,30.65,SSE,149,0.0,0.0,69,0.00,,,0.00,Wunderground v.1.15,2013-03-02 09:36:00,
2013-03-02 02:40:00,25.3,16.5,30.65,SSE,150,0.0,0.0,69,0.00,,,0.00,Wunderground v.1.15,2013-03-02 09:40:00,
2013-03-02 02:42:00,25.3,16.5,30.65,SSE,149,0.0,0.0,69,0.00,,,0.00,Wunderground v.1.15,2013-03-02 09:42:00,
2013-03-02 02:44:00,25.1,16.4,30.65,SSE,149,0.0,0.0,69,0.00,,,0.00,Wunderground v.1.15,2013-03-02 09:44:00,
2013-03-02 02:48:00,25.1,16.4,30.66,SSE,149,0.0,0.0,69,0.00,,,0.00,Wunderground v.1.15,2013-03-02 09:48:00,
2013-03-02 02:50:00,25.1,16.4,30.66,SSE,150,0.0,0.0,69,0.00,,,0.00,Wunderground v.1.15,2013-03-02 09:50:00,
2013-03-02 02:54:00,25.1,16.7,30.66,SSE,149,0.0,0.0,70,0.00,,,0.00,Wunderground v.1.15,2013-03-02 09:54:00,
2013-03-02 02:56:00,25.1,16.7,30.66,SSE,149,0.0,0.0,70,0.00,,,0.00,Wunderground v.1.15,2013-03-02 09:56:00,
2013-03-02 03:02:00,25.0,16.6,30.66,SSE,149,0.0,0.0,70,0.00,,,0.00,Wunderground v.1.15,2013-03-02 10:02:00,
2013-03-02 03:04:00,24.8,16.4,30.66,SSE,149,0.0,0.0,70,0.00,,,0.00,Wunderground v.1.15,2013-03-02 10:04:00,
2013-03-02 03:08:00,24.8,16.7,30.66,SSE,149,0.0,0.0,71,0.00,,,0.00,Wunderground v.1.15,2013-03-02 10:08:00,
2013-03-02 03:10:00,24.7,16.6,30.66,SSE,149,0.0,0.0,71,0.00,,,0.00,Wunderground v.1.15,2013-03-02 10:10:00,
2013-03-02 03:12:00,24.7,16.6,30.66,SSE,150,0.0,0.0,71,0.00,,,0.00,Wunderground v.1.15,2013-03-02 10:12:00,
2013-03-02 03:16:00,24.5,16.8,30.65,SSE,149,0.0,0.0,72,0.00,,,0.00,Wunderground v.1.15,2013-03-02 10:16:00,
2013-03-02 03:20:00,24.4,16.7,30.65,SSE,150,0.0,0.0,72,0.00,,,0.00,Wunderground v.1.15,2013-03-02 10:20:00,
2013-03-02 03:22:00,24.4,16.7,30.65,SSE,150,0.0,1.0,72,0.00,,,0.00,Wunderground v.1.15,2013-03-02 10:22:00,
2013-03-02 03:28:00,24.8,17.1,30.65,SSE,150,0.0,1.0,72,0.00,,,0.00,Wunderground v.1.15,2013-03-02 10:28:00,
2013-03-02 03:32:00,24.8,16.7,30.65,SSE,150,0.0,0.0,71,0.00,,,0.00,Wunderground v.1.15,2013-03-02 10:32:00,
2013-03-02 03:36:00,24.8,16.7,30.65,SSE,149,0.0,0.0,71,0.00,,,0.00,Wunderground v.1.15,2013-03-02 10:36:00,
2013-03-02 03:40:00,24.8,16.7,30.65,SSE,150,0.0,0.0,71,0.00,,,0.00,Wunderground v.1.15,2013-03-02 10:40:00,
2013-03-02 03:42:00,24.7,16.3,30.65,SSE,149,0.0,0.0,70,0.00,,,0.00,Wunderground v.1.15,2013-03-02 10:42:00,
2013-03-02 03:46:00,24.7,16.3,30.65,SSE,150,0.0,1.0,70,0.00,,,0.00,Wunderground v.1.15,2013-03-02 10:46:00,
2013-03-02 03:48:00,24.8,16.4,30.65,SSE,150,0.0,1.0,70,0.00,,,0.00,Wunderground v.1.15,2013-03-02 10:48:00,
2013-03-02 03:52:00,24.8,16.1,30.65,SSE,149,0.0,1.0,69,0.00,,,0.00,Wunderground v.1.15,2013-03-02 10:52:00,
2013-03-02 03:54:00,25.0,16.3,30.65,SSE,149,1.0,1.0,69,0.00,,,0.00,Wunderground v.1.15,2013-03-02 10:54:00,
2013-03-02 04:00:00,25.1,16.4,30.65,SSE,149,0.0,0.0,69,0.00,,,0.00,Wunderground v.1.15,2013-03-02 11:00:00,
2013-03-02 04:02:00,25.3,16.2,30.66,SSE,149,0.0,0.0,68,0.00,,,0.00,Wunderground v.1.15,2013-03-02 11:02:00,
2013-03-02 04:04:00,25.3,16.2,30.66,SSE,150,0.0,0.0,68,0.00,,,0.00,Wunderground v.1.15,2013-03-02 11:04:00,
2013-03-02 04:08:00,25.3,16.2,30.66,SSE,149,0.0,1.0,68,0.00,,,0.00,Wunderground v.1.15,2013-03-02 11:08:00,
2013-03-02 04:12:00,25.3,16.2,30.66,SSE,149,0.0,1.0,68,0.00,,,0.00,Wunderground v.1.15,2013-03-02 11:12:00,
2013-03-02 04:14:00,25.3,16.2,30.66,SSE,149,0.0,1.0,68,0.00,,,0.00,Wunderground v.1.15,2013-03-02 11:14:00,
2013-03-02 04:18:00,25.3,16.2,30.66,SSE,149,0.0,1.0,68,0.00,,,0.00,Wunderground v.1.15,2013-03-02 11:18:00,
2013-03-02 04:20:00,25.1,16.0,30.66,SSE,149,0.0,0.0,68,0.00,,,0.00,Wunderground v.1.15,2013-03-02 11:20:00,
2013-03-02 04:24:00,25.1,16.0,30.66,SSE,149,0.0,0.0,68,0.00,,,0.00,Wunderground v.1.15,2013-03-02 11:24:00,
2013-03-02 04:28:00,25.0,16.3,30.66,SSE,149,0.0,0.0,69,0.00,,,0.00,Wunderground v.1.15,2013-03-02 11:28:00,
2013-03-02 04:32:00,25.1,16.4,30.66,SSE,149,0.0,3.0,69,0.00,,,0.00,Wunderground v.1.15,2013-03-02 11:32:00,
2013-03-02 04:34:00,25.1,16.0,30.66,SSE,150,1.0,3.0,68,0.00,,,0.00,Wunderground v.1.15,2013-03-02 11:34:00,
2013-03-02 04:36:00,25.1,16.0,30.66,SSE,150,1.0,3.0,68,0.00,,,0.00,Wunderground v.1.15,2013-03-02 11:36:00,
2013-03-02 04:38:00,25.1,16.0,30.66,SSE,149,1.0,3.0,68,0.00,,,0.00,Wunderground v.1.15,2013-03-02 11:38:00,
2013-03-02 04:42:00,25.3,15.9,30.66,SSE,149,1.0,4.0,67,0.00,,,0.00,Wunderground v.1.15,2013-03-02 11:42:00,
2013-03-02 04:44:00,25.3,15.9,30.66,SSE,157,1.0,4.0,67,0.00,,,0.00,Wunderground v.1.15,2013-03-02 11:44:00,
2013-03-02 04:46:00,25.4,16.0,30.66,SSE,157,1.0,4.0,67,0.00,,,0.00,Wunderground v.1.15,2013-03-02 11:46:00,
2013-03-02 04:50:00,25.4,16.0,30.66,SSE,157,2.0,2.0,67,0.00,,,0.00,Wunderground v.1.15,2013-03-02 11:50:00,
2013-03-02 04:52:00,25.4,16.0,30.66,SSE,157,1.0,2.0,67,0.00,,,0.00,Wunderground v.1.15,2013-03-02 11:52:00,
2013-03-02 04:54:00,25.4,16.0,30.66,SSE,157,1.0,2.0,67,0.00,,,0.00,Wunderground v.1.15,2013-03-02 11:54:00,
2013-03-02 04:56:00,25.4,16.3,30.66,SSE,157,0.0,2.0,68,0.00,,,0.00,Wunderground v.1.15,2013-03-02 11:56:00,
2013-03-02 05:00:00,25.3,16.2,30.66,SSE,157,0.0,1.0,68,0.00,,,0.00,Wunderground v.1.15,2013-03-02 12:00:00,
2013-03-02 05:02:00,25.3,16.2,30.66,SSE,157,0.0,1.0,68,0.00,,,0.00,Wunderground v.1.15,2013-03-02 12:02:00,
2013-03-02 05:06:00,25.1,16.0,30.66,SSE,157,0.0,1.0,68,0.00,,,0.00,Wunderground v.1.15,2013-03-02 12:06:00,
2013-03-02 05:08:00,25.1,16.0,30.66,SSE,157,0.0,1.0,68,0.00,,,0.00,Wunderground v.1.15,2013-03-02 12:08:00,
2013-03-02 05:12:00,25.0,15.9,30.66,SSE,157,0.0,0.0,68,0.00,,,0.00,Wunderground v.1.15,2013-03-02 12:12:00,
2013-03-02 05:14:00,24.8,15.7,30.66,SSE,157,0.0,0.0,68,0.00,,,0.00,Wunderground v.1.15,2013-03-02 12:14:00,
2013-03-02 05:18:00,24.7,15.6,30.67,SSE,157,0.0,0.0,68,0.00,,,0.00,Wunderground v.1.15,2013-03-02 12:18:00,
2013-03-02 05:20:00,24.7,15.6,30.67,SSE,157,0.0,0.0,68,0.00,,,0.00,Wunderground v.1.15,2013-03-02 12:20:00,
2013-03-02 05:22:00,24.7,15.6,30.67,SSE,157,0.0,0.0,68,0.00,,,0.00,Wunderground v.1.15,2013-03-02 12:22:00,
2013-03-02 05:28:00,24.7,16.0,30.67,SSE,157,0.0,1.0,69,0.00,,,0.00,Wunderground v.1.15,2013-03-02 12:28:00,
2013-03-02 05:30:00,24.5,15.8,30.67,SSE,157,0.0,0.0,69,0.00,,,0.00,Wunderground v.1.15,2013-03-02 12:30:00,
2013-03-02 05:34:00,24.5,15.8,30.67,SSE,157,0.0,2.0,69,0.00,,,0.00,Wunderground v.1.15,2013-03-02 12:34:00,
2013-03-02 05:36:00,24.5,15.4,30.67,SSE,157,0.0,2.0,68,0.00,,,0.00,Wunderground v.1.15,2013-03-02 12:36:00,
2013-03-02 05:40:00,24.5,15.4,30.67,SSE,157,0.0,0.0,68,0.00,,,0.00,Wunderground v.1.15,2013-03-02 12:40:00,
2013-03-02 05:46:00,24.5,15.4,30.68,SSE,157,0.0,0.0,68,0.00,,,0.00,Wunderground v.1.15,2013-03-02 12:46:00,
2013-03-02 05:48:00,24.4,15.3,30.68,SSE,157,0.0,0.0,68,0.00,,,0.00,Wunderground v.1.15,2013-03-02 12:48:00,
2013-03-02 05:52:00,24.4,15.3,30.68,SSE,157,0.0,0.0,68,0.00,,,0.00,Wunderground v.1.15,2013-03-02 12:52:00,
2013-03-02 05:56:00,24.2,15.5,30.68,SSE,157,0.0,0.0,69,0.00,,,0.00,Wunderground v.1.15,2013-03-02 12:56:00,
2013-03-02 06:00:00,24.1,15.4,30.69,SSE,157,0.0,0.0,69,0.00,,,0.00,Wunderground v.1.15,2013-03-02 13:00:00,
2013-03-02 06:02:00,24.1,15.4,30.69,SSE,157,0.0,0.0,69,0.00,,,0.00,Wunderground v.1.15,2013-03-02 13:02:00,
2013-03-02 06:04:00,23.9,15.2,30.69,SSE,157,0.0,0.0,69,0.00,,,0.00,Wunderground v.1.15,2013-03-02 13:04:00,
2013-03-02 06:06:00,23.8,15.1,30.69,SSE,157,0.0,0.0,69,0.00,,,0.00,Wunderground v.1.15,2013-03-02 13:06:00,
2013-03-02 06:08:00,23.6,14.9,30.69,SSE,157,0.0,0.0,69,0.00,,,0.00,Wunderground v.1.15,2013-03-02 13:08:00,
2013-03-02 06:10:00,23.6,14.9,30.69,SSE,157,0.0,0.0,69,0.00,,,0.00,Wunderground v.1.15,2013-03-02 13:10:00,
2013-03-02 06:14:00,23.3,15.0,30.69,SSE,157,0.0,0.0,70,0.00,,,0.00,Wunderground v.1.15,2013-03-02 13:14:00,
2013-03-02 06:16:00,23.3,15.3,30.74,SSE,157,0.0,0.0,71,0.00,,,0.00,Wunderground v.1.15,2013-03-02 13:16:00,
2013-03-02 06:18:00,23.2,15.2,30.74,SSE,157,0.0,0.0,71,0.00,,,0.00,Wunderground v.1.15,2013-03-02 13:18:00,
2013-03-02 06:22:00,23.2,15.2,30.74,SSE,157,0.0,0.0,71,0.00,,,0.00,Wunderground v.1.15,2013-03-02 13:22:00,
2013-03-02 06:24:00,23.2,15.2,30.74,SSE,157,0.0,0.0,71,0.00,,,0.00,Wunderground v.1.15,2013-03-02 13:24:00,
2013-03-02 06:26:00,23.2,15.2,30.74,SSE,158,0.0,5.0,71,0.00,,,0.00,Wunderground v.1.15,2013-03-02 13:26:00,
2013-03-02 06:28:00,23.2,15.2,30.74,SSE,159,1.0,5.0,71,0.00,,,0.00,Wunderground v.1.15,2013-03-02 13:28:00,
2013-03-02 06:30:00,23.3,15.3,30.74,SSE,159,1.0,1.0,71,0.00,,,0.00,Wunderground v.1.15,2013-03-02 13:30:00,
2013-03-02 06:34:00,23.5,15.5,30.74,SSE,159,2.0,2.0,71,0.00,,,0.00,Wunderground v.1.15,2013-03-02 13:34:00,
2013-03-02 06:36:00,23.5,15.1,30.74,South,176,1.0,2.0,70,0.00,,,0.00,Wunderground v.1.15,2013-03-02 13:36:00,
2013-03-02 06:40:00,23.5,15.1,30.74,South,176,1.0,1.0,70,0.00,,,0.00,Wunderground v.1.15,2013-03-02 13:40:00,
2013-03-02 06:44:00,23.3,15.0,30.74,South,176,0.0,1.0,70,0.00,,,0.00,Wunderground v.1.15,2013-03-02 13:44:00,
2013-03-02 06:48:00,23.0,14.7,30.75,South,176,0.0,1.0,70,0.00,,,0.00,Wunderground v.1.15,2013-03-02 13:48:00,
2013-03-02 06:54:00,23.2,15.2,30.75,South,176,0.0,0.0,71,0.00,,,0.00,Wunderground v.1.15,2013-03-02 13:54:00,
2013-03-02 06:58:00,23.2,15.2,30.75,South,176,0.0,0.0,71,0.00,,,0.00,Wunderground v.1.15,2013-03-02 13:58:00,
2013-03-02 07:02:00,23.2,15.2,30.75,South,176,0.0,0.0,71,0.00,,,0.00,Wunderground v.1.15,2013-03-02 14:02:00,
2013-03-02 07:06:00,23.5,15.5,30.75,South,176,0.0,0.0,71,0.00,,,0.00,Wunderground v.1.15,2013-03-02 14:06:00,
2013-03-02 07:08:00,23.6,15.2,30.75,South,176,0.0,0.0,70,0.00,,,0.00,Wunderground v.1.15,2013-03-02 14:08:00,
2013-03-02 07:10:00,23.6,15.2,30.75,South,176,0.0,0.0,70,0.00,,,0.00,Wunderground v.1.15,2013-03-02 14:10:00,
2013-03-02 07:12:00,23.9,15.5,30.75,South,176,0.0,0.0,70,0.00,,,0.00,Wunderground v.1.15,2013-03-02 14:12:00,
2013-03-02 07:14:00,24.1,15.7,30.75,South,176,0.0,0.0,70,0.00,,,0.00,Wunderground v.1.15,2013-03-02 14:14:00,
2013-03-02 07:16:00,24.4,16.0,30.77,South,176,0.0,0.0,70,0.00,,,0.00,Wunderground v.1.15,2013-03-02 14:16:00,
2013-03-02 07:20:00,24.8,16.1,30.77,South,176,0.0,0.0,69,0.00,,,0.00,Wunderground v.1.15,2013-03-02 14:20:00,
2013-03-02 07:22:00,25.1,16.4,30.77,South,176,0.0,0.0,69,0.00,,,0.00,Wunderground v.1.15,2013-03-02 14:22:00,
2013-03-02 07:24:00,25.4,16.3,30.77,South,176,0.0,0.0,68,0.00,,,0.00,Wunderground v.1.15,2013-03-02 14:24:00,
2013-03-02 07:30:00,26.6,16.8,30.77,South,176,0.0,0.0,66,0.00,,,0.00,Wunderground v.1.15,2013-03-02 14:30:00,
2013-03-02 07:32:00,26.9,17.0,30.76,South,176,0.0,0.0,66,0.00,,,0.00,Wunderground v.1.15,2013-03-02 14:32:00,
2013-03-02 07:34:00,27.3,17.1,30.76,South,176,0.0,0.0,65,0.00,,,0.00,Wunderground v.1.15,2013-03-02 14:34:00,
2013-03-02 07:36:00,27.6,17.0,30.76,South,176,0.0,0.0,64,0.00,,,0.00,Wunderground v.1.15,2013-03-02 14:36:00,
2013-03-02 07:42:00,28.2,17.2,30.76,South,176,1.0,1.0,63,0.00,,,0.00,Wunderground v.1.15,2013-03-02 14:42:00,
2013-03-02 07:44:00,28.4,17.4,30.76,South,176,1.0,1.0,63,0.00,,,0.00,Wunderground v.1.15,2013-03-02 14:44:00,
2013-03-02 07:46:00,28.7,17.7,30.74,South,176,1.0,2.0,63,0.00,,,0.00,Wunderground v.1.15,2013-03-02 14:46:00,
2013-03-02 07:48:00,29.0,17.2,30.74,South,176,1.0,2.0,61,0.00,,,0.00,Wunderground v.1.15,2013-03-02 14:48:00,
2013-03-02 07:52:00,29.1,17.3,30.74,South,176,1.0,1.0,61,0.00,,,0.00,Wunderground v.1.15,2013-03-02 14:52:00,
2013-03-02 07:54:00,29.3,17.5,30.74,South,176,1.0,1.0,61,0.00,,,0.00,Wunderground v.1.15,2013-03-02 14:54:00,
2013-03-02 07:56:00,29.4,17.6,30.74,South,176,1.0,1.0,61,0.00,,,0.00,Wunderground v.1.15,2013-03-02 14:56:00,
2013-03-02 08:00:00,29.7,17.5,30.74,South,176,1.0,1.0,60,0.00,,,0.00,Wunderground v.1.15,2013-03-02 15:00:00,
2013-03-02 08:02:00,29.7,17.5,30.73,South,176,0.0,2.0,60,0.00,,,0.00,Wunderground v.1.15,2013-03-02 15:02:00,
2013-03-02 08:06:00,29.8,17.6,30.73,South,176,1.0,2.0,60,0.00,,,0.00,Wunderground v.1.15,2013-03-02 15:06:00,
2013-03-02 08:10:00,30.1,17.9,30.73,South,176,1.0,1.0,60,0.00,,,0.00,Wunderground v.1.15,2013-03-02 15:10:00,
2013-03-02 08:12:00,30.3,18.5,30.73,South,176,1.0,1.0,61,0.00,,,0.00,Wunderground v.1.15,2013-03-02 15:12:00,
2013-03-02 08:14:00,30.6,18.7,30.73,South,176,1.0,1.0,61,0.00,,,0.00,Wunderground v.1.15,2013-03-02 15:14:00,
2013-03-02 08:16:00,30.9,19.0,30.74,South,176,0.0,1.0,61,0.00,,,0.00,Wunderground v.1.15,2013-03-02 15:16:00,
2013-03-02 08:20:00,31.3,19.4,30.74,South,175,0.0,0.0,61,0.00,,,0.00,Wunderground v.1.15,2013-03-02 15:20:00,
2013-03-02 08:26:00,31.9,19.6,30.74,South,176,0.0,0.0,60,0.00,,,0.00,Wunderground v.1.15,2013-03-02 15:26:00,
2013-03-02 08:28:00,32.2,19.9,30.74,South,176,0.0,0.0,60,0.00,,,0.00,Wunderground v.1.15,2013-03-02 15:28:00,
2013-03-02 08:30:00,32.5,20.1,30.74,South,176,0.0,0.0,60,0.00,,,0.00,Wunderground v.1.15,2013-03-02 15:30:00,
2013-03-02 08:34:00,33.1,20.3,30.72,South,176,0.0,1.0,59,0.00,,,0.00,Wunderground v.1.15,2013-03-02 15:34:00,
2013-03-02 08:38:00,33.5,20.7,30.72,South,176,0.0,1.0,59,0.00,,,0.00,Wunderground v.1.15,2013-03-02 15:38:00,
2013-03-02 08:40:00,33.8,20.6,30.72,South,176,0.0,0.0,58,0.00,,,0.00,Wunderground v.1.15,2013-03-02 15:40:00,
2013-03-02 08:42:00,34.0,20.3,30.72,South,176,0.0,1.0,57,0.00,,,0.00,Wunderground v.1.15,2013-03-02 15:42:00,
2013-03-02 08:44:00,34.1,19.6,30.72,South,176,0.0,1.0,55,0.00,,,0.00,Wunderground v.1.15,2013-03-02 15:44:00,
2013-03-02 08:48:00,34.1,19.2,30.71,South,176,1.0,2.0,54,0.00,,,0.00,Wunderground v.1.15,2013-03-02 15:48:00,
2013-03-02 08:50:00,34.1,19.6,30.71,South,176,1.0,1.0,55,0.00,,,0.00,Wunderground v.1.15,2013-03-02 15:50:00,
2013-03-02 08:52:00,34.1,19.2,30.71,South,176,1.0,1.0,54,0.00,,,0.00,Wunderground v.1.15,2013-03-02 15:52:00,
2013-03-02 08:54:00,34.1,19.2,30.71,South,176,2.0,2.0,54,0.00,,,0.00,Wunderground v.1.15,2013-03-02 15:54:00,
2013-03-02 08:58:00,34.3,19.4,30.71,South,176,1.0,3.0,54,0.00,,,0.00,Wunderground v.1.15,2013-03-02 15:58:00,
2013-03-02 09:00:00,34.6,20.1,30.71,South,176,1.0,2.0,55,0.00,,,0.00,Wunderground v.1.15,2013-03-02 16:00:00,
2013-03-02 09:02:00,34.7,19.3,30.70,South,176,1.0,2.0,53,0.00,,,0.00,Wunderground v.1.15,2013-03-02 16:02:00,
2013-03-02 09:04:00,35.2,19.3,30.70,South,176,0.0,2.0,52,0.00,,,0.00,Wunderground v.1.15,2013-03-02 16:04:00,
2013-03-02 09:06:00,35.3,18.5,30.70,ESE,114,1.0,2.0,50,0.00,,,0.00,Wunderground v.1.15,2013-03-02 16:06:00,
2013-03-02 09:08:00,35.3,18.5,30.70,SE,146,1.0,4.0,50,0.00,,,0.00,Wunderground v.1.15,2013-03-02 16:08:00,
2013-03-02 09:10:00,35.5,18.7,30.70,SSE,148,1.0,3.0,50,0.00,,,0.00,Wunderground v.1.15,2013-03-02 16:10:00,
2013-03-02 09:14:00,35.6,18.8,30.70,SSE,149,2.0,3.0,50,0.00,,,0.00,Wunderground v.1.15,2013-03-02 16:14:00,
2013-03-02 09:16:00,35.8,19.4,30.68,SSE,149,1.0,3.0,51,0.00,,,0.00,Wunderground v.1.15,2013-03-02 16:16:00,
2013-03-02 09:18:00,36.0,19.1,30.68,SSE,148,1.0,3.0,50,0.00,,,0.00,Wunderground v.1.15,2013-03-02 16:18:00,
2013-03-02 09:20:00,36.2,18.9,30.68,SE,136,1.0,1.0,49,0.00,,,0.00,Wunderground v.1.15,2013-03-02 16:20:00,
2013-03-02 09:24:00,36.8,18.9,30.68,SE,137,1.0,2.0,48,0.00,,,0.00,Wunderground v.1.15,2013-03-02 16:24:00,
2013-03-02 09:28:00,37.2,19.3,30.68,SE,145,1.0,2.0,48,0.00,,,0.00,Wunderground v.1.15,2013-03-02 16:28:00,
2013-03-02 09:30:00,37.3,18.9,30.68,South,180,1.0,2.0,47,0.00,,,0.00,Wunderground v.1.15,2013-03-02 16:30:00,
2013-03-02 09:34:00,37.6,19.2,30.68,SSE,160,1.0,2.0,47,0.00,,,0.00,Wunderground v.1.15,2013-03-02 16:34:00,
2013-03-02 09:36:00,37.9,19.4,30.68,SSE,160,1.0,2.0,47,0.00,,,0.00,Wunderground v.1.15,2013-03-02 16:36:00,
2013-03-02 09:38:00,38.0,19.5,30.68,SSE,160,1.0,2.0,47,0.00,,,0.00,Wunderground v.1.15,2013-03-02 16:38:00,
2013-03-02 09:40:00,38.2,19.2,30.68,SSE,160,1.0,1.0,46,0.00,,,0.00,Wunderground v.1.15,2013-03-02 16:40:00,
2013-03-02 09:44:00,38.3,19.3,30.68,SSE,161,1.0,2.0,46,0.00,,,0.00,Wunderground v.1.15,2013-03-02 16:44:00,
2013-03-02 09:48:00,38.6,19.6,30.66,SSE,161,1.0,2.0,46,0.00,,,0.00,Wunderground v.1.15,2013-03-02 16:48:00,
2013-03-02 09:50:00,38.8,19.8,30.66,SSE,161,1.0,1.0,46,0.00,,,0.00,Wunderground v.1.15,2013-03-02 16:50:00,
2013-03-02 09:52:00,38.9,19.9,30.66,SSE,161,1.0,1.0,46,0.00,,,0.00,Wunderground v.1.15,2013-03-02 16:52:00,
2013-03-02 09:54:00,39.1,20.0,30.66,SSE,161,0.0,1.0,46,0.00,,,0.00,Wunderground v.1.15,2013-03-02 16:54:00,
2013-03-02 09:56:00,39.2,20.6,30.66,SSE,161,1.0,1.0,47,0.00,,,0.00,Wunderground v.1.15,2013-03-02 16:56:00,
2013-03-02 10:02:00,39.3,20.2,30.65,SSE,161,1.0,1.0,46,0.00,,,0.00,Wunderground v.1.15,2013-03-02 17:02:00,
2013-03-02 10:04:00,39.5,20.4,30.65,SSE,161,1.0,1.0,46,0.00,,,0.00,Wunderground v.1.15,2013-03-02 17:04:00,
2013-03-02 10:06:00,39.5,19.9,30.65,SSE,161,1.0,1.0,45,0.00,,,0.00,Wunderground v.1.15,2013-03-02 17:06:00,
2013-03-02 10:10:00,40.1,19.9,30.65,SSE,161,1.0,2.0,44,0.00,,,0.00,Wunderground v.1.15,2013-03-02 17:10:00,
2013-03-02 10:12:00,40.2,20.5,30.65,SSE,161,0.0,0.0,45,0.00,,,0.00,Wunderground v.1.15,2013-03-02 17:12:00,
2013-03-02 10:14:00,40.5,20.3,30.65,SSE,161,0.0,0.0,44,0.00,,,0.00,Wunderground v.1.15,2013-03-02 17:14:00,
2013-03-02 10:18:00,40.9,20.1,30.63,SSE,161,0.0,0.0,43,0.00,,,0.00,Wunderground v.1.15,2013-03-02 17:18:00,
2013-03-02 10:20:00,41.3,20.5,30.63,SSE,161,0.0,0.0,43,0.00,,,0.00,Wunderground v.1.15,2013-03-02 17:20:00,
2013-03-02 10:24:00,42.1,20.6,30.63,SSE,161,0.0,2.0,42,0.00,,,0.00,Wunderground v.1.15,2013-03-02 17:24:00,
2013-03-02 10:28:00,42.2,20.7,30.63,SSE,161,1.0,2.0,42,0.00,,,0.00,Wunderground v.1.15,2013-03-02 17:28:00,
2013-03-02 10:30:00,42.2,20.7,30.63,SSE,161,1.0,2.0,42,0.00,,,0.00,Wunderground v.1.15,2013-03-02 17:30:00,
2013-03-02 10:34:00,42.2,20.7,30.63,SSE,161,1.0,1.0,42,0.00,,,0.00,Wunderground v.1.15,2013-03-02 17:34:00,
2013-03-02 10:38:00,42.5,20.4,30.63,SSE,161,1.0,1.0,41,0.00,,,0.00,Wunderground v.1.15,2013-03-02 17:38:00,
2013-03-02 10:40:00,42.8,20.7,30.63,SSE,161,0.0,1.0,41,0.00,,,0.00,Wunderground v.1.15,2013-03-02 17:40:00,
2013-03-02 10:42:00,43.2,21.1,30.63,SSE,161,0.0,0.0,41,0.00,,,0.00,Wunderground v.1.15,2013-03-02 17:42:00,
2013-03-02 10:46:00,43.9,20.5,30.61,SSE,161,0.0,2.0,39,0.00,,,0.00,Wunderground v.1.15,2013-03-02 17:46:00,
2013-03-02 10:48:00,43.8,20.4,30.61,SE,141,0.0,2.0,39,0.00,,,0.00,Wunderground v.1.15,2013-03-02 17:48:00,
2013-03-02 10:50:00,43.8,20.4,30.61,ENE,75,0.0,2.0,39,0.00,,,0.00,Wunderground v.1.15,2013-03-02 17:50:00,
2013-03-02 10:52:00,43.5,20.2,30.61,NE,56,1.0,2.0,39,0.00,,,0.00,Wunderground v.1.15,2013-03-02 17:52:00,
2013-03-02 10:56:00,42.6,20.5,30.61,NE,35,1.0,2.0,41,0.00,,,0.00,Wunderground v.1.15,2013-03-02 17:56:00,
2013-03-02 10:58:00,42.5,20.4,30.61,NE,39,1.0,2.0,41,0.00,,,0.00,Wunderground v.1.15,2013-03-02 17:58:00,
2013-03-02 11:02:00,42.6,20.5,30.60,NE,36,1.0,1.0,41,0.00,,,0.00,Wunderground v.1.15,2013-03-02 18:02:00,
2013-03-02 11:04:00,42.6,20.5,30.60,NNE,24,1.0,1.0,41,0.00,,,0.00,Wunderground v.1.15,2013-03-02 18:04:00,
2013-03-02 11:06:00,42.6,20.5,30.60,NNE,25,1.0,1.0,41,0.00,,,0.00,Wunderground v.1.15,2013-03-02 18:06:00,
2013-03-02 11:08:00,42.6,20.5,30.60,NNE,24,1.0,1.0,41,0.00,,,0.00,Wunderground v.1.15,2013-03-02 18:08:00,
2013-03-02 11:10:00,42.6,20.5,30.60,NNE,25,1.0,1.0,41,0.00,,,0.00,Wunderground v.1.15,2013-03-02 18:10:00,
2013-03-02 11:12:00,42.8,21.3,30.60,NNE,30,1.0,3.0,42,0.00,,,0.00,Wunderground v.1.15,2013-03-02 18:12:00,
2013-03-02 11:14:00,42.8,20.7,30.60,North,32767,1.0,3.0,41,0.00,,,0.00,Wunderground v.1.15,2013-03-02 18:14:00,
2013-03-02 11:16:00,42.8,20.7,30.61,NE,34,1.0,3.0,41,0.00,,,0.00,Wunderground v.1.15,2013-03-02 18:16:00,
2013-03-02 11:18:00,43.1,20.4,30.61,ENE,75,1.0,3.0,40,0.00,,,0.00,Wunderground v.1.15,2013-03-02 18:18:00,
2013-03-02 11:20:00,43.2,20.5,30.61,NNE,32,1.0,3.0,40,0.00,,,0.00,Wunderground v.1.15,2013-03-02 18:20:00,
2013-03-02 11:22:00,43.2,20.5,30.61,NNE,28,1.0,1.0,40,0.00,,,0.00,Wunderground v.1.15,2013-03-02 18:22:00,
2013-03-02 11:24:00,43.3,20.6,30.61,NNE,28,1.0,1.0,40,0.00,,,0.00,Wunderground v.1.15,2013-03-02 18:24:00,
2013-03-02 11:26:00,43.8,20.4,30.61,East,94,1.0,1.0,39,0.00,,,0.00,Wunderground v.1.15,2013-03-02 18:26:00,
2013-03-02 11:28:00,43.9,20.5,30.61,East,89,1.0,1.0,39,0.00,,,0.00,Wunderground v.1.15,2013-03-02 18:28:00,
2013-03-02 11:30:00,44.1,20.7,30.61,East,84,1.0,2.0,39,0.00,,,0.00,Wunderground v.1.15,2013-03-02 18:30:00,
2013-03-02 11:32:00,44.1,20.7,30.60,East,84,1.0,1.0,39,0.00,,,0.00,Wunderground v.1.15,2013-03-02 18:32:00,
2013-03-02 11:36:00,44.3,20.3,30.60,East,90,1.0,2.0,38,0.00,,,0.00,Wunderground v.1.15,2013-03-02 18:36:00,
2013-03-02 11:38:00,44.6,20.5,30.60,East,90,1.0,2.0,38,0.00,,,0.00,Wunderground v.1.15,2013-03-02 18:38:00,
2013-03-02 11:40:00,44.8,20.1,30.60,East,88,1.0,2.0,37,0.00,,,0.00,Wunderground v.1.15,2013-03-02 18:40:00,
2013-03-02 11:42:00,44.9,20.8,30.60,East,90,1.0,1.0,38,0.00,,,0.00,Wunderground v.1.15,2013-03-02 18:42:00,
2013-03-02 11:44:00,44.9,20.8,30.60,East,91,1.0,1.0,38,0.00,,,0.00,Wunderground v.1.15,2013-03-02 18:44:00,
2013-03-02 11:46:00,44.8,20.7,30.58,ENE,69,1.0,4.0,38,0.00,,,0.00,Wunderground v.1.15,2013-03-02 18:46:00,
2013-03-02 11:48:00,44.6,19.9,30.58,ENE,74,1.0,4.0,37,0.00,,,0.00,Wunderground v.1.15,2013-03-02 18:48:00,
2013-03-02 11:50:00,44.6,19.3,30.58,ENE,72,2.0,4.0,36,0.00,,,0.00,Wunderground v.1.15,2013-03-02 18:50:00,
2013-03-02 11:54:00,44.9,20.2,30.58,ENE,73,1.0,2.0,37,0.00,,,0.00,Wunderground v.1.15,2013-03-02 18:54:00,
2013-03-02 11:56:00,45.2,19.8,30.58,ENE,76,1.0,2.0,36,0.00,,,0.00,Wunderground v.1.15,2013-03-02 18:56:00,
2013-03-02 12:00:00,45.8,20.3,30.58,ESE,111,1.0,1.0,36,0.00,,,0.00,Wunderground v.1.15,2013-03-02 19:00:00,
2013-03-02 12:02:00,46.0,19.8,30.57,ESE,110,1.0,1.0,35,0.00,,,0.00,Wunderground v.1.15,2013-03-02 19:02:00,
2013-03-02 12:04:00,46.2,20.0,30.57,ESE,110,1.0,1.0,35,0.00,,,0.00,Wunderground v.1.15,2013-03-02 19:04:00,
2013-03-02 12:06:00,46.7,20.5,30.57,ESE,110,1.0,2.0,35,0.00,,,0.00,Wunderground v.1.15,2013-03-02 19:06:00,
2013-03-02 12:08:00,46.8,19.9,30.57,ESE,111,1.0,2.0,34,0.00,,,0.00,Wunderground v.1.15,2013-03-02 19:08:00,
2013-03-02 12:10:00,46.8,19.9,30.57,ESE,112,1.0,1.0,34,0.00,,,0.00,Wunderground v.1.15,2013-03-02 19:10:00,
2013-03-02 12:12:00,46.8,20.6,30.57,ESE,112,1.0,1.0,35,0.00,,,0.00,Wunderground v.1.15,2013-03-02 19:12:00,
2013-03-02 12:14:00,47.3,21.7,30.57,ESE,112,1.0,1.0,36,0.00,,,0.00,Wunderground v.1.15,2013-03-02 19:14:00,
2013-03-02 12:18:00,47.7,20.0,30.55,NE,46,1.0,1.0,33,0.00,,,0.00,Wunderground v.1.15,2013-03-02 19:18:00,
2013-03-02 12:20:00,47.7,20.7,30.55,NE,46,0.0,0.0,34,0.00,,,0.00,Wunderground v.1.15,2013-03-02 19:20:00,
2013-03-02 12:24:00,47.9,20.1,30.55,NE,46,0.0,0.0,33,0.00,,,0.00,Wunderground v.1.15,2013-03-02 19:24:00,
2013-03-02 12:26:00,48.0,20.9,30.55,NE,43,1.0,1.0,34,0.00,,,0.00,Wunderground v.1.15,2013-03-02 19:26:00,
2013-03-02 12:30:00,48.3,20.5,30.55,NE,40,1.0,2.0,33,0.00,,,0.00,Wunderground v.1.15,2013-03-02 19:30:00,
2013-03-02 12:36:00,47.7,20.0,30.54,NE,36,1.0,2.0,33,0.00,,,0.00,Wunderground v.1.15,2013-03-02 19:36:00,
2013-03-02 12:38:00,47.6,19.9,30.54,North,355,1.0,4.0,33,0.00,,,0.00,Wunderground v.1.15,2013-03-02 19:38:00,
2013-03-02 12:40:00,47.6,20.6,30.54,North,350,1.0,1.0,34,0.00,,,0.00,Wunderground v.1.15,2013-03-02 19:40:00,
2013-03-02 12:42:00,47.7,21.3,30.54,NNE,29,1.0,2.0,35,0.00,,,0.00,Wunderground v.1.15,2013-03-02 19:42:00,
2013-03-02 12:44:00,47.7,20.7,30.54,NNE,28,1.0,3.0,34,0.00,,,0.00,Wunderground v.1.15,2013-03-02 19:44:00,
2013-03-02 12:46:00,47.7,20.7,30.53,NNE,28,2.0,3.0,34,0.00,,,0.00,Wunderground v.1.15,2013-03-02 19:46:00,
2013-03-02 12:48:00,47.7,21.3,30.53,NNE,25,2.0,3.0,35,0.00,,,0.00,Wunderground v.1.15,2013-03-02 19:48:00,
2013-03-02 12:52:00,47.7,20.7,30.53,NNE,22,2.0,2.0,34,0.00,,,0.00,Wunderground v.1.15,2013-03-02 19:52:00,
2013-03-02 12:54:00,47.9,20.8,30.53,NE,45,2.0,2.0,34,0.00,,,0.00,Wunderground v.1.15,2013-03-02 19:54:00,
2013-03-02 12:58:00,48.2,20.4,30.53,NNE,26,1.0,2.0,33,0.00,,,0.00,Wunderground v.1.15,2013-03-02 19:58:00,
2013-03-02 13:00:00,48.3,20.5,30.53,NNE,27,1.0,1.0,33,0.00,,,0.00,Wunderground v.1.15,2013-03-02 20:00:00,
2013-03-02 13:02:00,48.3,20.5,30.52,NE,41,1.0,1.0,33,0.00,,,0.00,Wunderground v.1.15,2013-03-02 20:02:00,
2013-03-02 13:04:00,48.3,21.2,30.52,NE,41,1.0,1.0,34,0.00,,,0.00,Wunderground v.1.15,2013-03-02 20:04:00,
2013-03-02 13:06:00,48.6,22.1,30.52,NNE,22,1.0,3.0,35,0.00,,,0.00,Wunderground v.1.15,2013-03-02 20:06:00,
2013-03-02 13:08:00,49.1,21.2,30.52,North,11,1.0,3.0,33,0.00,,,0.00,Wunderground v.1.15,2013-03-02 20:08:00,
2013-03-02 13:10:00,49.2,22.0,30.52,North,10,1.0,1.0,34,0.00,,,0.00,Wunderground v.1.15,2013-03-02 20:10:00,
2013-03-02 13:12:00,49.5,22.3,30.52,NNE,31,1.0,1.0,34,0.00,,,0.00,Wunderground v.1.15,2013-03-02 20:12:00,
2013-03-02 13:14:00,49.6,22.3,30.52,North,350,2.0,2.0,34,0.00,,,0.00,Wunderground v.1.15,2013-03-02 20:14:00,
2013-03-02 13:16:00,49.8,21.8,30.50,North,350,2.0,2.0,33,0.00,,,0.00,Wunderground v.1.15,2013-03-02 20:16:00,
2013-03-02 13:18:00,50.1,22.8,30.50,NE,44,1.0,4.0,34,0.00,,,0.00,Wunderground v.1.15,2013-03-02 20:18:00,
2013-03-02 13:20:00,50.2,21.4,30.50,ENE,66,1.0,4.0,32,0.00,,,0.00,Wunderground v.1.15,2013-03-02 20:20:00,
2013-03-02 13:24:00,49.8,21.8,30.50,ESE,102,1.0,4.0,33,0.00,,,0.00,Wunderground v.1.15,2013-03-02 20:24:00,
2013-03-02 13:26:00,49.4,22.2,30.50,ESE,103,2.0,4.0,34,0.00,,,0.00,Wunderground v.1.15,2013-03-02 20:26:00,
2013-03-02 13:28:00,49.4,21.5,30.50,East,101,1.0,4.0,33,0.00,,,0.00,Wunderground v.1.15,2013-03-02 20:28:00,
2013-03-02 13:30:00,49.6,21.6,30.50,East,80,1.0,2.0,33,0.00,,,0.00,Wunderground v.1.15,2013-03-02 20:30:00,
2013-03-02 13:32:00,49.8,21.8,30.49,ENE,74,1.0,3.0,33,0.00,,,0.00,Wunderground v.1.15,2013-03-02 20:32:00,
2013-03-02 13:34:00,49.9,22.6,30.49,NE,39,1.0,3.0,34,0.00,,,0.00,Wunderground v.1.15,2013-03-02 20:34:00,
2013-03-02 13:38:00,49.6,22.3,30.49,East,85,1.0,3.0,34,0.00,,,0.00,Wunderground v.1.15,2013-03-02 20:38:00,
2013-03-02 13:40:00,49.8,22.5,30.49,East,85,1.0,1.0,34,0.00,,,0.00,Wunderground v.1.15,2013-03-02 20:40:00,
2013-03-02 13:42:00,49.9,22.6,30.49,East,80,1.0,1.0,34,0.00,,,0.00,Wunderground v.1.15,2013-03-02 20:42:00,
2013-03-02 13:48:00,50.7,22.6,30.48,South,178,0.0,2.0,33,0.00,,,0.00,Wunderground v.1.15,2013-03-02 20:48:00,
2013-03-02 13:50:00,51.0,22.9,30.48,East,93,0.0,0.0,33,0.00,,,0.00,Wunderground v.1.15,2013-03-02 20:50:00,
2013-03-02 13:54:00,51.0,22.9,30.48,NE,49,0.0,2.0,33,0.00,,,0.00,Wunderground v.1.15,2013-03-02 20:54:00,
2013-03-02 13:56:00,51.0,23.6,30.48,NE,49,1.0,2.0,34,0.00,,,0.00,Wunderground v.1.15,2013-03-02 20:56:00,
2013-03-02 13:58:00,51.0,22.9,30.48,ENE,68,1.0,2.0,33,0.00,,,0.00,Wunderground v.1.15,2013-03-02 20:58:00,
2013-03-02 14:02:00,51.1,22.2,30.47,ENE,59,1.0,2.0,32,0.00,,,0.00,Wunderground v.1.15,2013-03-02 21:02:00,
2013-03-02 14:06:00,51.0,22.9,30.47,East,96,1.0,2.0,33,0.00,,,0.00,Wunderground v.1.15,2013-03-02 21:06:00,
2013-03-02 14:10:00,51.1,23.0,30.47,NNE,15,1.0,1.0,33,0.00,,,0.00,Wunderground v.1.15,2013-03-02 21:10:00,
2013-03-02 14:14:00,51.1,23.0,30.47,NNE,21,1.0,1.0,33,0.00,,,0.00,Wunderground v.1.15,2013-03-02 21:14:00,
2013-03-02 14:16:00,51.0,22.1,30.47,NNE,19,1.0,1.0,32,0.00,,,0.00,Wunderground v.1.15,2013-03-02 21:16:00,
2013-03-02 14:18:00,51.0,22.9,30.47,NE,55,2.0,3.0,33,0.00,,,0.00,Wunderground v.1.15,2013-03-02 21:18:00,
2013-03-02 14:20:00,51.1,22.2,30.47,ENE,68,1.0,1.0,32,0.00,,,0.00,Wunderground v.1.15,2013-03-02 21:20:00,
2013-03-02 14:22:00,51.3,22.4,30.47,ENE,59,1.0,1.0,32,0.00,,,0.00,Wunderground v.1.15,2013-03-02 21:22:00,
2013-03-02 14:24:00,51.3,22.4,30.47,ENE,61,1.0,1.0,32,0.00,,,0.00,Wunderground v.1.15,2013-03-02 21:24:00,
2013-03-02 14:26:00,51.3,21.6,30.47,ESE,118,1.0,1.0,31,0.00,,,0.00,Wunderground v.1.15,2013-03-02 21:26:00,
2013-03-02 14:28:00,51.3,22.4,30.47,ENE,62,1.0,1.0,32,0.00,,,0.00,Wunderground v.1.15,2013-03-02 21:28:00,
2013-03-02 14:30:00,51.4,21.7,30.47,East,79,1.0,1.0,31,0.00,,,0.00,Wunderground v.1.15,2013-03-02 21:30:00,
2013-03-02 14:34:00,51.4,22.5,30.47,East,80,1.0,1.0,32,0.00,,,0.00,Wunderground v.1.15,2013-03-02 21:34:00,
2013-03-02 14:38:00,51.9,22.9,30.47,NE,38,1.0,4.0,32,0.00,,,0.00,Wunderground v.1.15,2013-03-02 21:38:00,
2013-03-02 14:40:00,52.0,22.3,30.47,NE,39,1.0,1.0,31,0.00,,,0.00,Wunderground v.1.15,2013-03-02 21:40:00,
2013-03-02 14:42:00,52.0,21.5,30.47,ESE,105,1.0,1.0,30,0.00,,,0.00,Wunderground v.1.15,2013-03-02 21:42:00,
2013-03-02 14:48:00,52.2,22.4,30.46,NE,42,1.0,1.0,31,0.00,,,0.00,Wunderground v.1.15,2013-03-02 21:48:00,
2013-03-02 14:50:00,52.2,21.7,30.46,NE,55,1.0,5.0,30,0.00,,,0.00,Wunderground v.1.15,2013-03-02 21:50:00,
2013-03-02 14:52:00,52.0,21.5,30.46,SE,126,1.0,5.0,30,0.00,,,0.00,Wunderground v.1.15,2013-03-02 21:52:00,
2013-03-02 14:54:00,51.9,22.2,30.46,ESE,113,1.0,5.0,31,0.00,,,0.00,Wunderground v.1.15,2013-03-02 21:54:00,
2013-03-02 14:56:00,52.0,22.3,30.46,ESE,104,1.0,5.0,31,0.00,,,0.00,Wunderground v.1.15,2013-03-02 21:56:00,
2013-03-02 15:00:00,52.2,21.7,30.46,NE,53,1.0,4.0,30,0.00,,,0.00,Wunderground v.1.15,2013-03-02 22:00:00,
2013-03-02 15:04:00,52.2,21.7,30.45,ENE,57,1.0,4.0,30,0.00,,,0.00,Wunderground v.1.15,2013-03-02 22:04:00,
2013-03-02 15:06:00,52.3,21.7,30.45,ENE,76,1.0,4.0,30,0.00,,,0.00,Wunderground v.1.15,2013-03-02 22:06:00,
2013-03-02 15:08:00,52.6,21.2,30.45,ENE,75,1.0,4.0,29,0.00,,,0.00,Wunderground v.1.15,2013-03-02 22:08:00,
2013-03-02 15:10:00,52.8,22.2,30.45,ENE,71,0.0,0.0,30,0.00,,,0.00,Wunderground v.1.15,2013-03-02 22:10:00,
2013-03-02 15:12:00,52.5,21.9,30.45,ESE,105,0.0,1.0,30,0.00,,,0.00,Wunderground v.1.15,2013-03-02 22:12:00,
2013-03-02 15:14:00,52.5,21.9,30.45,ESE,106,0.0,1.0,30,0.00,,,0.00,Wunderground v.1.15,2013-03-02 22:14:00,
2013-03-02 15:16:00,52.5,21.9,30.43,ESE,106,0.0,2.0,30,0.00,,,0.00,Wunderground v.1.15,2013-03-02 22:16:00,
2013-03-02 15:18:00,52.5,21.1,30.43,ESE,110,1.0,2.0,29,0.00,,,0.00,Wunderground v.1.15,2013-03-02 22:18:00,
2013-03-02 15:20:00,52.5,21.1,30.43,ESE,117,0.0,3.0,29,0.00,,,0.00,Wunderground v.1.15,2013-03-02 22:20:00,
2013-03-02 15:22:00,52.3,20.9,30.43,ESE,117,0.0,3.0,29,0.00,,,0.00,Wunderground v.1.15,2013-03-02 22:22:00,
2013-03-02 15:24:00,52.3,20.1,30.43,ESE,121,1.0,3.0,28,0.00,,,0.00,Wunderground v.1.15,2013-03-02 22:24:00,
2013-03-02 15:26:00,52.2,20.0,30.43,ESE,121,1.0,3.0,28,0.00,,,0.00,Wunderground v.1.15,2013-03-02 22:26:00,
2013-03-02 15:28:00,52.3,20.9,30.43,ESE,121,1.0,3.0,29,0.00,,,0.00,Wunderground v.1.15,2013-03-02 22:28:00,
2013-03-02 15:30:00,52.5,20.3,30.43,ESE,110,1.0,1.0,28,0.00,,,0.00,Wunderground v.1.15,2013-03-02 22:30:00,
2013-03-02 15:36:00,52.3,20.1,30.43,ESE,111,0.0,1.0,28,0.00,,,0.00,Wunderground v.1.15,2013-03-02 22:36:00,
2013-03-02 15:38:00,52.5,20.3,30.43,ESE,108,0.0,1.0,28,0.00,,,0.00,Wunderground v.1.15,2013-03-02 22:38:00,
2013-03-02 15:40:00,52.8,20.5,30.43,ESE,109,0.0,0.0,28,0.00,,,0.00,Wunderground v.1.15,2013-03-02 22:40:00,
2013-03-02 15:44:00,53.2,20.0,30.43,ESE,107,0.0,0.0,27,0.00,,,0.00,Wunderground v.1.15,2013-03-02 22:44:00,
2013-03-02 15:46:00,53.3,20.1,30.42,ESE,107,0.0,0.0,27,0.00,,,0.00,Wunderground v.1.15,2013-03-02 22:46:00,
2013-03-02 15:48:00,53.3,21.0,30.42,ESE,107,0.0,0.0,28,0.00,,,0.00,Wunderground v.1.15,2013-03-02 22:48:00,
2013-03-02 15:50:00,53.3,21.0,30.42,ESE,107,0.0,0.0,28,0.00,,,0.00,Wunderground v.1.15,2013-03-02 22:50:00,
2013-03-02 15:52:00,53.2,20.9,30.42,ESE,107,0.0,0.0,28,0.00,,,0.00,Wunderground v.1.15,2013-03-02 22:52:00,
2013-03-02 15:54:00,53.3,20.1,30.42,ESE,107,0.0,0.0,27,0.00,,,0.00,Wunderground v.1.15,2013-03-02 22:54:00,
2013-03-02 15:56:00,53.5,21.2,30.42,ESE,103,0.0,0.0,28,0.00,,,0.00,Wunderground v.1.15,2013-03-02 22:56:00,
2013-03-02 16:00:00,53.2,20.0,30.42,ESE,105,0.0,0.0,27,0.00,,,0.00,Wunderground v.1.15,2013-03-02 23:00:00,
2013-03-02 16:02:00,53.1,20.8,30.42,ESE,105,0.0,0.0,28,0.00,,,0.00,Wunderground v.1.15,2013-03-02 23:02:00,
2013-03-02 16:06:00,52.8,20.5,30.42,ESE,106,1.0,3.0,28,0.00,,,0.00,Wunderground v.1.15,2013-03-02 23:06:00,
2013-03-02 16:10:00,52.8,19.7,30.42,ESE,106,0.0,0.0,27,0.00,,,0.00,Wunderground v.1.15,2013-03-02 23:10:00,
2013-03-02 16:12:00,52.9,20.6,30.42,ESE,106,0.0,0.0,28,0.00,,,0.00,Wunderground v.1.15,2013-03-02 23:12:00,
2013-03-02 16:16:00,53.6,21.2,30.40,ESE,105,0.0,0.0,28,0.00,,,0.00,Wunderground v.1.15,2013-03-02 23:16:00,
2013-03-02 16:20:00,53.9,20.6,30.40,ESE,106,0.0,0.0,27,0.00,,,0.00,Wunderground v.1.15,2013-03-02 23:20:00,
2013-03-02 16:22:00,54.1,19.9,30.40,East,100,0.0,0.0,26,0.00,,,0.00,Wunderground v.1.15,2013-03-02 23:22:00,
2013-03-02 16:24:00,53.9,19.8,30.40,East,100,0.0,0.0,26,0.00,,,0.00,Wunderground v.1.15,2013-03-02 23:24:00,
2013-03-02 16:26:00,53.6,20.4,30.40,East,100,0.0,0.0,27,0.00,,,0.00,Wunderground v.1.15,2013-03-02 23:26:00,
2013-03-02 16:28:00,53.5,19.4,30.40,East,96,1.0,2.0,26,0.00,,,0.00,Wunderground v.1.15,2013-03-02 23:28:00,
2013-03-02 16:32:00,53.2,19.2,30.41,East,92,1.0,2.0,26,0.00,,,0.00,Wunderground v.1.15,2013-03-02 23:32:00,
2013-03-02 16:34:00,53.1,19.1,30.41,East,91,1.0,2.0,26,0.00,,,0.00,Wunderground v.1.15,2013-03-02 23:34:00,
2013-03-02 16:36:00,52.9,19.8,30.41,East,91,1.0,2.0,27,0.00,,,0.00,Wunderground v.1.15,2013-03-02 23:36:00,
2013-03-02 16:38:00,52.9,20.6,30.41,East,90,1.0,2.0,28,0.00,,,0.00,Wunderground v.1.15,2013-03-02 23:38:00,
2013-03-02 16:40:00,52.8,19.7,30.41,East,90,1.0,1.0,27,0.00,,,0.00,Wunderground v.1.15,2013-03-02 23:40:00,
2013-03-02 16:42:00,52.8,19.7,30.41,East,90,1.0,1.0,27,0.00,,,0.00,Wunderground v.1.15,2013-03-02 23:42:00,
2013-03-02 16:46:00,52.8,20.5,30.40,East,90,0.0,1.0,28,0.00,,,0.00,Wunderground v.1.15,2013-03-02 23:46:00,
2013-03-02 16:48:00,52.8,20.5,30.40,East,90,0.0,1.0,28,0.00,,,0.00,Wunderground v.1.15,2013-03-02 23:48:00,
2013-03-02 16:50:00,52.8,19.7,30.40,East,90,0.0,0.0,27,0.00,,,0.00,Wunderground v.1.15,2013-03-02 23:50:00,
2013-03-02 16:52:00,52.9,19.8,30.40,East,90,0.0,0.0,27,0.00,,,0.00,Wunderground v.1.15,2013-03-02 23:52:00,
2013-03-02 16:54:00,52.9,19.8,30.40,East,90,0.0,0.0,27,0.00,,,0.00,Wunderground v.1.15,2013-03-02 23:54:00,
2013-03-02 16:56:00,52.9,18.9,30.40,East,88,0.0,0.0,26,0.00,,,0.00,Wunderground v.1.15,2013-03-02 23:56:00,
2013-03-02 17:02:00,52.9,19.8,30.40,East,88,0.0,0.0,27,0.00,,,0.00,Wunderground v.1.15,2013-03-03 00:02:00,
2013-03-02 17:04:00,52.8,19.7,30.40,East,88,0.0,0.0,27,0.00,,,0.00,Wunderground v.1.15,2013-03-03 00:04:00,
2013-03-02 17:08:00,52.6,19.5,30.40,East,88,0.0,0.0,27,0.00,,,0.00,Wunderground v.1.15,2013-03-03 00:08:00,
2013-03-02 17:12:00,52.5,20.3,30.40,East,89,0.0,0.0,28,0.00,,,0.00,Wunderground v.1.15,2013-03-03 00:12:00,
2013-03-02 17:16:00,52.5,20.3,30.40,East,89,0.0,0.0,28,0.00,,,0.00,Wunderground v.1.15,2013-03-03 00:16:00,
2013-03-02 17:18:00,52.3,20.1,30.40,East,89,0.0,0.0,28,0.00,,,0.00,Wunderground v.1.15,2013-03-03 00:18:00,
2013-03-02 17:20:00,52.3,20.1,30.40,East,89,0.0,0.0,28,0.00,,,0.00,Wunderground v.1.15,2013-03-03 00:20:00,
2013-03-02 17:24:00,52.2,20.9,30.40,East,89,0.0,0.0,29,0.00,,,0.00,Wunderground v.1.15,2013-03-03 00:24:00,
2013-03-02 17:26:00,52.0,22.3,30.40,East,92,0.0,2.0,31,0.00,,,0.00,Wunderground v.1.15,2013-03-03 00:26:00,
2013-03-02 17:28:00,51.9,22.2,30.40,East,92,0.0,2.0,31,0.00,,,0.00,Wunderground v.1.15,2013-03-03 00:28:00,
2013-03-02 17:32:00,51.4,21.7,30.40,East,92,1.0,1.0,31,0.00,,,0.00,Wunderground v.1.15,2013-03-03 00:32:00,
2013-03-02 17:34:00,51.3,21.6,30.40,East,92,1.0,1.0,31,0.00,,,0.00,Wunderground v.1.15,2013-03-03 00:34:00,
2013-03-02 17:36:00,51.0,21.4,30.40,East,92,1.0,1.0,31,0.00,,,0.00,Wunderground v.1.15,2013-03-03 00:36:00,
2013-03-02 17:38:00,51.0,21.4,30.40,East,92,1.0,1.0,31,0.00,,,0.00,Wunderground v.1.15,2013-03-03 00:38:00,
2013-03-02 17:40:00,50.8,22.0,30.40,East,92,0.0,1.0,32,0.00,,,0.00,Wunderground v.1.15,2013-03-03 00:40:00,
2013-03-02 17:46:00,50.7,22.6,30.42,East,92,0.0,2.0,33,0.00,,,0.00,Wunderground v.1.15,2013-03-03 00:46:00,
2013-03-02 17:48:00,50.5,21.7,30.42,East,92,0.0,2.0,32,0.00,,,0.00,Wunderground v.1.15,2013-03-03 00:48:00,
2013-03-02 17:50:00,50.4,22.3,30.42,East,92,0.0,2.0,33,0.00,,,0.00,Wunderground v.1.15,2013-03-03 00:50:00,
2013-03-02 17:52:00,50.1,22.8,30.42,East,92,0.0,0.0,34,0.00,,,0.00,Wunderground v.1.15,2013-03-03 00:52:00,
2013-03-02 17:58:00,49.6,21.6,30.42,East,92,0.0,0.0,33,0.00,,,0.00,Wunderground v.1.15,2013-03-03 00:58:00,
2013-03-02 18:00:00,49.4,20.7,30.42,East,92,0.0,1.0,32,0.00,,,0.00,Wunderground v.1.15,2013-03-03 01:00:00,
2013-03-02 18:04:00,49.1,21.9,30.42,East,92,0.0,1.0,34,0.00,,,0.00,Wunderground v.1.15,2013-03-03 01:04:00,
2013-03-02 18:08:00,48.8,20.9,30.42,East,92,0.0,1.0,33,0.00,,,0.00,Wunderground v.1.15,2013-03-03 01:08:00,
2013-03-02 18:10:00,48.8,21.6,30.42,East,92,1.0,1.0,34,0.00,,,0.00,Wunderground v.1.15,2013-03-03 01:10:00,
2013-03-02 18:12:00,48.5,22.1,30.42,East,92,0.0,1.0,35,0.00,,,0.00,Wunderground v.1.15,2013-03-03 01:12:00,
2013-03-02 18:14:00,48.3,21.9,30.42,East,92,1.0,1.0,35,0.00,,,0.00,Wunderground v.1.15,2013-03-03 01:14:00,
2013-03-02 18:18:00,48.0,22.3,30.44,East,92,0.0,1.0,36,0.00,,,0.00,Wunderground v.1.15,2013-03-03 01:18:00,
2013-03-02 18:22:00,47.6,23.8,30.44,East,92,0.0,0.0,39,0.00,,,0.00,Wunderground v.1.15,2013-03-03 01:22:00,
2013-03-02 18:24:00,47.3,24.2,30.44,East,92,0.0,0.0,40,0.00,,,0.00,Wunderground v.1.15,2013-03-03 01:24:00,
2013-03-02 18:26:00,46.8,24.3,30.44,East,92,0.0,0.0,41,0.00,,,0.00,Wunderground v.1.15,2013-03-03 01:26:00,
2013-03-02 18:30:00,46.2,24.3,30.45,East,92,0.0,0.0,42,0.00,,,0.00,Wunderground v.1.15,2013-03-03 01:30:00,
2013-03-02 18:36:00,45.2,24.0,30.45,ESE,110,0.0,2.0,43,0.00,,,0.00,Wunderground v.1.15,2013-03-03 01:36:00,
2013-03-02 18:38:00,45.1,24.5,30.45,ESE,110,0.0,2.0,44,0.00,,,0.00,Wunderground v.1.15,2013-03-03 01:38:00,
2013-03-02 18:42:00,44.3,25.3,30.45,ESE,110,0.0,0.0,47,0.00,,,0.00,Wunderground v.1.15,2013-03-03 01:42:00,
2013-03-02 18:44:00,44.1,26.1,30.45,ESE,110,0.0,0.0,49,0.00,,,0.00,Wunderground v.1.15,2013-03-03 01:44:00,
2013-03-02 18:48:00,43.2,26.3,30.46,ESE,110,0.0,0.0,51,0.00,,,0.00,Wunderground v.1.15,2013-03-03 01:48:00,
2013-03-02 18:54:00,42.1,26.2,30.46,ESE,110,0.0,0.0,53,0.00,,,0.00,Wunderground v.1.15,2013-03-03 01:54:00,
2013-03-02 18:58:00,41.5,26.5,30.46,ESE,110,0.0,0.0,55,0.00,,,0.00,Wunderground v.1.15,2013-03-03 01:58:00,
2013-03-02 19:02:00,40.9,26.4,30.48,ESE,111,0.0,1.0,56,0.00,,,0.00,Wunderground v.1.15,2013-03-03 02:02:00,
2013-03-02 19:04:00,40.6,26.5,30.48,ESE,110,0.0,1.0,57,0.00,,,0.00,Wunderground v.1.15,2013-03-03 02:04:00,
2013-03-02 19:06:00,40.3,26.7,30.48,ESE,110,0.0,1.0,58,0.00,,,0.00,Wunderground v.1.15,2013-03-03 02:06:00,
2013-03-02 19:10:00,39.9,26.7,30.48,ESE,110,0.0,1.0,59,0.00,,,0.00,Wunderground v.1.15,2013-03-03 02:10:00,
2013-03-02 19:16:00,39.1,26.4,30.45,ESE,110,0.0,0.0,60,0.00,,,0.00,Wunderground v.1.15,2013-03-03 02:16:00,
2013-03-02 19:18:00,38.8,26.5,30.45,ESE,110,0.0,0.0,61,0.00,,,0.00,Wunderground v.1.15,2013-03-03 02:18:00,
2013-03-02 19:20:00,38.8,26.5,30.45,ESE,110,0.0,0.0,61,0.00,,,0.00,Wunderground v.1.15,2013-03-03 02:20:00,
2013-03-02 19:22:00,38.6,26.3,30.45,ESE,110,0.0,0.0,61,0.00,,,0.00,Wunderground v.1.15,2013-03-03 02:22:00,
2013-03-02 19:26:00,38.5,26.2,30.45,ESE,110,0.0,0.0,61,0.00,,,0.00,Wunderground v.1.15,2013-03-03 02:26:00,
2013-03-02 19:31:00,38.5,26.2,30.45,ESE,110,0.0,0.0,61,0.00,,,0.00,Wunderground v.1.15,2013-03-03 02:31:00,
2013-03-02 19:32:00,38.5,26.2,30.45,ESE,110,0.0,0.0,61,0.00,,,0.00,Wunderground v.1.15,2013-03-03 02:32:00,
2013-03-02 19:34:00,38.5,26.6,30.45,ESE,110,0.0,0.0,62,0.00,,,0.00,Wunderground v.1.15,2013-03-03 02:34:00,
2013-03-02 19:38:00,38.3,26.4,30.45,ESE,110,0.0,0.0,62,0.00,,,0.00,Wunderground v.1.15,2013-03-03 02:38:00,
2013-03-02 19:40:00,38.2,26.3,30.45,ESE,110,0.0,0.0,62,0.00,,,0.00,Wunderground v.1.15,2013-03-03 02:40:00,
2013-03-02 19:44:00,38.0,26.1,30.45,ESE,110,0.0,0.0,62,0.00,,,0.00,Wunderground v.1.15,2013-03-03 02:44:00,
2013-03-02 19:46:00,37.9,26.0,30.45,ESE,110,0.0,0.0,62,0.00,,,0.00,Wunderground v.1.15,2013-03-03 02:46:00,
2013-03-02 19:50:00,37.6,25.7,30.45,ESE,110,0.0,1.0,62,0.00,,,0.00,Wunderground v.1.15,2013-03-03 02:50:00,
2013-03-02 19:54:00,37.2,25.8,30.45,ESE,110,0.0,0.0,63,0.00,,,0.00,Wunderground v.1.15,2013-03-03 02:54:00,
2013-03-02 19:56:00,37.0,25.6,30.45,ESE,110,0.0,0.0,63,0.00,,,0.00,Wunderground v.1.15,2013-03-03 02:56:00,
2013-03-02 19:58:00,36.9,25.5,30.45,ESE,110,0.0,0.0,63,0.00,,,0.00,Wunderground v.1.15,2013-03-03 02:58:00,
2013-03-02 20:01:00,36.8,25.8,30.46,ESE,110,0.0,0.0,64,0.00,,,0.00,Wunderground v.1.15,2013-03-03 03:01:00,
2013-03-02 20:02:00,36.6,25.6,30.46,ESE,110,0.0,0.0,64,0.00,,,0.00,Wunderground v.1.15,2013-03-03 03:02:00,
2013-03-02 20:04:00,36.5,25.1,30.46,ESE,110,0.0,0.0,63,0.00,,,0.00,Wunderground v.1.15,2013-03-03 03:04:00,
2013-03-02 20:06:00,36.5,25.1,30.46,ESE,110,0.0,0.0,63,0.00,,,0.00,Wunderground v.1.15,2013-03-03 03:06:00,
2013-03-02 20:08:00,36.5,25.1,30.46,ESE,110,0.0,0.0,63,0.00,,,0.00,Wunderground v.1.15,2013-03-03 03:08:00,
2013-03-02 20:12:00,36.2,24.8,30.46,ESE,110,0.0,0.0,63,0.00,,,0.00,Wunderground v.1.15,2013-03-03 03:12:00,
2013-03-02 20:14:00,36.2,24.8,30.46,ESE,110,0.0,0.0,63,0.00,,,0.00,Wunderground v.1.15,2013-03-03 03:14:00,
2013-03-02 20:16:00,36.0,24.6,30.43,ESE,110,0.0,0.0,63,0.00,,,0.00,Wunderground v.1.15,2013-03-03 03:16:00,
2013-03-02 20:18:00,36.0,24.6,30.43,ESE,110,0.0,0.0,63,0.00,,,0.00,Wunderground v.1.15,2013-03-03 03:18:00,
2013-03-02 20:22:00,35.8,24.8,30.43,ESE,110,0.0,0.0,64,0.00,,,0.00,Wunderground v.1.15,2013-03-03 03:22:00,
2013-03-02 20:24:00,35.8,24.8,30.43,ESE,110,0.0,0.0,64,0.00,,,0.00,Wunderground v.1.15,2013-03-03 03:24:00,
2013-03-02 20:26:00,35.6,24.6,30.43,ESE,110,0.0,0.0,64,0.00,,,0.00,Wunderground v.1.15,2013-03-03 03:26:00,
2013-03-02 20:28:00,35.6,24.6,30.43,ESE,110,0.0,0.0,64,0.00,,,0.00,Wunderground v.1.15,2013-03-03 03:28:00,
2013-03-02 20:30:00,35.5,24.5,30.43,ESE,110,0.0,1.0,64,0.00,,,0.00,Wunderground v.1.15,2013-03-03 03:30:00,
2013-03-02 20:32:00,35.5,24.5,30.43,ESE,110,0.0,0.0,64,0.00,,,0.00,Wunderground v.1.15,2013-03-03 03:32:00,
2013-03-02 20:38:00,35.3,24.7,30.43,ESE,110,0.0,0.0,65,0.00,,,0.00,Wunderground v.1.15,2013-03-03 03:38:00,
2013-03-02 20:40:00,35.3,24.7,30.43,ESE,110,0.0,0.0,65,0.00,,,0.00,Wunderground v.1.15,2013-03-03 03:40:00,
2013-03-02 20:42:00,35.2,24.6,30.43,ESE,110,0.0,0.0,65,0.00,,,0.00,Wunderground v.1.15,2013-03-03 03:42:00,
2013-03-02 20:44:00,35.2,24.6,30.43,ESE,110,0.0,0.0,65,0.00,,,0.00,Wunderground v.1.15,2013-03-03 03:44:00,
2013-03-02 20:48:00,34.9,24.3,30.43,ESE,110,0.0,0.0,65,0.00,,,0.00,Wunderground v.1.15,2013-03-03 03:48:00,
2013-03-02 20:50:00,34.9,24.3,30.43,ESE,110,0.0,0.0,65,0.00,,,0.00,Wunderground v.1.15,2013-03-03 03:50:00,
2013-03-02 20:54:00,34.7,24.5,30.43,ESE,110,0.0,0.0,66,0.00,,,0.00,Wunderground v.1.15,2013-03-03 03:54:00,
2013-03-02 20:56:00,34.6,24.4,30.43,ESE,110,0.0,0.0,66,0.00,,,0.00,Wunderground v.1.15,2013-03-03 03:56:00,
2013-03-02 20:58:00,34.6,24.4,30.43,ESE,110,0.0,0.0,66,0.00,,,0.00,Wunderground v.1.15,2013-03-03 03:58:00,
2013-03-02 21:02:00,34.4,24.6,30.44,ESE,110,0.0,0.0,67,0.00,,,0.00,Wunderground v.1.15,2013-03-03 04:02:00,
2013-03-02 21:04:00,34.3,24.5,30.44,ESE,110,0.0,0.0,67,0.00,,,0.00,Wunderground v.1.15,2013-03-03 04:04:00,
2013-03-02 21:08:00,34.1,24.3,30.44,ESE,110,0.0,0.0,67,0.00,,,0.00,Wunderground v.1.15,2013-03-03 04:08:00,
2013-03-02 21:10:00,34.1,24.3,30.44,ESE,110,0.0,0.0,67,0.00,,,0.00,Wunderground v.1.15,2013-03-03 04:10:00,
2013-03-02 21:14:00,34.0,24.5,30.44,ESE,110,0.0,0.0,68,0.00,,,0.00,Wunderground v.1.15,2013-03-03 04:14:00,
2013-03-02 21:16:00,33.8,24.4,30.42,ESE,110,0.0,0.0,68,0.00,,,0.00,Wunderground v.1.15,2013-03-03 04:16:00,
2013-03-02 21:18:00,33.8,24.4,30.42,ESE,110,0.0,0.0,68,0.00,,,0.00,Wunderground v.1.15,2013-03-03 04:18:00,
2013-03-02 21:20:00,33.7,24.3,30.42,ESE,110,0.0,0.0,68,0.00,,,0.00,Wunderground v.1.15,2013-03-03 04:20:00,
2013-03-02 21:24:00,33.5,24.4,30.42,ESE,110,0.0,0.0,69,0.00,,,0.00,Wunderground v.1.15,2013-03-03 04:24:00,
2013-03-02 21:26:00,33.5,24.4,30.42,ESE,110,0.0,0.0,69,0.00,,,0.00,Wunderground v.1.15,2013-03-03 04:26:00,
2013-03-02 21:28:00,33.4,24.3,30.42,ESE,110,0.0,0.0,69,0.00,,,0.00,Wunderground v.1.15,2013-03-03 04:28:00,
2013-03-02 21:30:00,33.4,24.3,30.42,ESE,110,0.0,0.0,69,0.00,,,0.00,Wunderground v.1.15,2013-03-03 04:30:00,
2013-03-02 21:34:00,33.4,24.3,30.42,ESE,110,0.0,0.0,69,0.00,,,0.00,Wunderground v.1.15,2013-03-03 04:34:00,
2013-03-02 21:36:00,33.4,24.3,30.42,ESE,110,0.0,0.0,69,0.00,,,0.00,Wunderground v.1.15,2013-03-03 04:36:00,
2013-03-02 21:38:00,33.2,24.1,30.42,ESE,110,0.0,0.0,69,0.00,,,0.00,Wunderground v.1.15,2013-03-03 04:38:00,
2013-03-02 21:40:00,33.2,24.1,30.42,ESE,110,0.0,0.0,69,0.00,,,0.00,Wunderground v.1.15,2013-03-03 04:40:00,
2013-03-02 21:44:00,33.1,24.0,30.42,ESE,110,0.0,0.0,69,0.00,,,0.00,Wunderground v.1.15,2013-03-03 04:44:00,
2013-03-02 21:46:00,33.1,24.0,30.40,ESE,110,0.0,0.0,69,0.00,,,0.00,Wunderground v.1.15,2013-03-03 04:46:00,
2013-03-02 21:48:00,33.1,24.0,30.40,ESE,110,0.0,0.0,69,0.00,,,0.00,Wunderground v.1.15,2013-03-03 04:48:00,
2013-03-02 21:52:00,32.9,23.8,30.40,ESE,110,0.0,0.0,69,0.00,,,0.00,Wunderground v.1.15,2013-03-03 04:52:00,
2013-03-02 21:54:00,33.1,24.0,30.40,ESE,110,0.0,0.0,69,0.00,,,0.00,Wunderground v.1.15,2013-03-03 04:54:00,
2013-03-02 21:56:00,33.1,24.0,30.40,ESE,110,0.0,0.0,69,0.00,,,0.00,Wunderground v.1.15,2013-03-03 04:56:00,
2013-03-02 22:00:00,33.1,24.0,30.40,ESE,110,0.0,0.0,69,0.00,,,0.00,Wunderground v.1.15,2013-03-03 05:00:00,
2013-03-02 22:04:00,33.1,24.0,30.40,ESE,110,0.0,0.0,69,0.00,,,0.00,Wunderground v.1.15,2013-03-03 05:04:00,
2013-03-02 22:06:00,33.1,24.0,30.40,ESE,110,0.0,0.0,69,0.00,,,0.00,Wunderground v.1.15,2013-03-03 05:06:00,
2013-03-02 22:08:00,33.1,24.0,30.40,ESE,110,0.0,1.0,69,0.00,,,0.00,Wunderground v.1.15,2013-03-03 05:08:00,
2013-03-02 22:12:00,33.4,24.0,30.40,ESE,110,1.0,1.0,68,0.00,,,0.00,Wunderground v.1.15,2013-03-03 05:12:00,
2013-03-02 22:16:00,33.5,23.7,30.36,ESE,110,1.0,1.0,67,0.00,,,0.00,Wunderground v.1.15,2013-03-03 05:16:00,
2013-03-02 22:18:00,33.5,23.4,30.36,ESE,110,0.0,1.0,66,0.00,,,0.00,Wunderground v.1.15,2013-03-03 05:18:00,
2013-03-02 22:20:00,33.5,23.4,30.36,ESE,110,0.0,1.0,66,0.00,,,0.00,Wunderground v.1.15,2013-03-03 05:20:00,
2013-03-02 22:22:00,33.7,23.2,30.36,ESE,110,0.0,1.0,65,0.00,,,0.00,Wunderground v.1.15,2013-03-03 05:22:00,
2013-03-02 22:24:00,33.8,23.3,30.36,ESE,110,0.0,1.0,65,0.00,,,0.00,Wunderground v.1.15,2013-03-03 05:24:00,
2013-03-02 22:28:00,34.1,23.2,30.36,ESE,110,0.0,1.0,64,0.00,,,0.00,Wunderground v.1.15,2013-03-03 05:28:00,
2013-03-02 22:30:00,34.4,23.1,30.36,ESE,110,0.0,0.0,63,0.00,,,0.00,Wunderground v.1.15,2013-03-03 05:30:00,
2013-03-02 22:32:00,34.6,23.3,30.36,ESE,110,0.0,0.0,63,0.00,,,0.00,Wunderground v.1.15,2013-03-03 05:32:00,
2013-03-02 22:36:00,34.9,23.2,30.36,ESE,110,0.0,0.0,62,0.00,,,0.00,Wunderground v.1.15,2013-03-03 05:36:00,
2013-03-02 22:38:00,34.9,23.2,30.36,ESE,110,0.0,0.0,62,0.00,,,0.00,Wunderground v.1.15,2013-03-03 05:38:00,
2013-03-02 22:42:00,34.9,23.2,30.36,ESE,110,0.0,0.0,62,0.00,,,0.00,Wunderground v.1.15,2013-03-03 05:42:00,
2013-03-02 22:44:00,34.7,23.0,30.36,ESE,110,0.0,0.0,62,0.00,,,0.00,Wunderground v.1.15,2013-03-03 05:44:00,
2013-03-02 22:46:00,34.7,23.0,30.34,ESE,110,0.0,0.0,62,0.00,,,0.00,Wunderground v.1.15,2013-03-03 05:46:00,
2013-03-02 22:50:00,34.9,22.8,30.34,ESE,110,0.0,0.0,61,0.00,,,0.00,Wunderground v.1.15,2013-03-03 05:50:00,
2013-03-02 22:52:00,34.9,22.8,30.34,ESE,110,0.0,0.0,61,0.00,,,0.00,Wunderground v.1.15,2013-03-03 05:52:00,
2013-03-02 22:54:00,34.9,22.8,30.34,ESE,110,0.0,0.0,61,0.00,,,0.00,Wunderground v.1.15,2013-03-03 05:54:00,
2013-03-02 23:00:00,34.9,22.8,30.34,ESE,110,0.0,0.0,61,0.00,,,0.00,Wunderground v.1.15,2013-03-03 06:00:00,
2013-03-02 23:02:00,34.9,22.8,30.34,ESE,110,0.0,0.0,61,0.00,,,0.00,Wunderground v.1.15,2013-03-03 06:02:00,
2013-03-02 23:04:00,34.9,23.2,30.34,ESE,110,0.0,0.0,62,0.00,,,0.00,Wunderground v.1.15,2013-03-03 06:04:00,
2013-03-02 23:10:00,34.9,22.8,30.34,ESE,110,0.0,0.0,61,0.00,,,0.00,Wunderground v.1.15,2013-03-03 06:10:00,
2013-03-02 23:12:00,35.0,22.9,30.34,ESE,110,0.0,0.0,61,0.00,,,0.00,Wunderground v.1.15,2013-03-03 06:12:00,
2013-03-02 23:14:00,35.0,22.9,30.34,ESE,110,0.0,0.0,61,0.00,,,0.00,Wunderground v.1.15,2013-03-03 06:14:00,
2013-03-02 23:16:00,34.9,22.8,30.31,ESE,110,0.0,0.0,61,0.00,,,0.00,Wunderground v.1.15,2013-03-03 06:16:00,
2013-03-02 23:20:00,34.9,22.8,30.31,ESE,111,0.0,0.0,61,0.00,,,0.00,Wunderground v.1.15,2013-03-03 06:20:00,
2013-03-02 23:22:00,34.7,23.0,30.31,ESE,110,0.0,0.0,62,0.00,,,0.00,Wunderground v.1.15,2013-03-03 06:22:00,
2013-03-02 23:26:00,34.7,23.0,30.31,ESE,110,0.0,0.0,62,0.00,,,0.00,Wunderground v.1.15,2013-03-03 06:26:00,
2013-03-02 23:30:00,34.7,23.0,30.31,ESE,110,0.0,0.0,62,0.00,,,0.00,Wunderground v.1.15,2013-03-03 06:30:00,
2013-03-02 23:32:00,34.7,23.0,30.31,ESE,110,0.0,0.0,62,0.00,,,0.00,Wunderground v.1.15,2013-03-03 06:32:00,
2013-03-02 23:36:00,34.7,23.0,30.31,ESE,110,0.0,0.0,62,0.00,,,0.00,Wunderground v.1.15,2013-03-03 06:36:00,
2013-03-02 23:38:00,34.7,23.0,30.31,ESE,110,0.0,0.0,62,0.00,,,0.00,Wunderground v.1.15,2013-03-03 06:38:00,
2013-03-02 23:40:00,34.7,23.4,30.31,ESE,110,0.0,0.0,63,0.00,,,0.00,Wunderground v.1.15,2013-03-03 06:40:00,
2013-03-02 23:44:00,35.0,23.3,30.31,ESE,110,0.0,1.0,62,0.00,,,0.00,Wunderground v.1.15,2013-03-03 06:44:00,
2013-03-02 23:48:00,35.3,23.6,30.30,SE,128,0.0,3.0,62,0.00,,,0.00,Wunderground v.1.15,2013-03-03 06:48:00,
2013-03-02 23:50:00,35.5,23.4,30.30,SE,128,1.0,1.0,61,0.00,,,0.00,Wunderground v.1.15,2013-03-03 06:50:00,
2013-03-02 23:54:00,36.0,23.0,30.30,SE,146,2.0,4.0,59,0.00,,,0.00,Wunderground v.1.15,2013-03-03 06:54:00,
2013-03-02 23:56:00,36.5,23.1,30.30,SSE,158,2.0,4.0,58,0.00,,,0.00,Wunderground v.1.15,2013-03-03 06:56:00,
2013-03-02 23:58:00,36.8,23.4,30.30,SSE,158,2.0,4.0,58,0.00,,,0.00,Wunderground v.1.15,2013-03-03 06:58:00,